Prescott, AZ

8:41 PM MST on December 11, 2019 (GMT -0700)
Love

Weather History for KPRC - November, 2019

Change the Weather History Date:

Thursday, November 14, 2019

  Actual Average Record
Temperature  
Mean Temperature 54 °F 47 °F  
Max Temperature 72 °F 61 °F 75 °F (1974)
Min Temperature 36 °F 32 °F 18 °F (1985)
Degree Days  
Heating Degree Days 11    
Month to date heating degree days 162  
Since 1 July heating degree days 481  
Cooling Degree Days 0    
Month to date cooling degree days 0  
Year to date cooling degree days 1130  
Growing Degree Days 4 (Base 50)    
Moisture  
Dew Point 26 °F    
Average Humidity 38    
Maximum Humidity 58    
Minimum Humidity 16    
Precipitation  
Precipitation 0.00 in 0.03 in 0.97 in (1993)
Month to date precipitation 0.26 0.40  
Year to date precipitation 10.55 12.49  
Sea Level Pressure  
Sea Level Pressure 30.08 in    
Wind  
Wind Speed 4 mph ()    
Max Wind Speed 12 mph    
Max Gust Speed 14 mph    
Visibility 10.0 miles    
Events      
T = Trace of Precipitation, MM = Missing Value Source: Averaged Metar Reports

Daily Weather History Graph

Daily Weather History Graph

Search for Another Location

Airport or City:

Astronomy

Nov. 14, 2019 Rise Set
Actual Time 7:02 AM MST 5:25 PM MST
Civil Twilight 6:35 AM MST 5:52 PM MST
Nautical Twilight 6:05 AM MST 6:22 PM MST
Astronomical Twilight 5:35 AM MST 6:52 PM MST
Moon 7:17 PM MST (11/14) 8:58 AM MST (11/14)
Length of Visible Light 11h 16m
Length of Day
10h 23m
Waning Gibbous, 95% of the Moon is Illuminated
Nov 14
Waning Gibbous
Nov 19
Last Quarter
Nov 26
New
Dec 3
First Quarter
Dec 11
Full

Hourly Weather History & Observations

Time (MST) Temp. Windchill Dew Point Humidity Pressure Visibility Wind Dir Wind Speed Gust Speed Precip Events Conditions
12:53 AM 42.1 °F 39.2 °F 23.0 °F 47% 30.00 in 10.0 mi South 4.6 mph - N/A   Clear
1:53 AM 44.1 °F 40.1 °F 21.0 °F 40% 30.00 in 10.0 mi SSW 6.9 mph - N/A   Clear
2:53 AM 39.9 °F 36.7 °F 21.9 °F 49% 30.01 in 10.0 mi South 4.6 mph - N/A   Clear
3:53 AM 39.9 °F 37.8 °F 21.9 °F 49% 30.02 in 10.0 mi Variable 3.5 mph - N/A   Clear
5:53 AM 37.9 °F 35.5 °F 21.9 °F 53% 30.06 in 10.0 mi SSW 3.5 mph - N/A   Clear
6:53 AM 37.0 °F 33.3 °F 21.0 °F 52% 30.09 in 10.0 mi South 4.6 mph - N/A   Clear
7:53 AM 39.9 °F - 24.1 °F 53% 30.12 in 10.0 mi Calm Calm - N/A   Clear
8:53 AM 51.1 °F - 25.0 °F 36% 30.12 in 10.0 mi Calm Calm - N/A   Clear
9:53 AM 57.0 °F - 24.1 °F 28% 30.12 in 10.0 mi Calm Calm - N/A   Clear
10:53 AM 64.0 °F - 24.1 °F 22% 30.10 in 10.0 mi Variable 3.5 mph - N/A   Clear
11:53 AM 66.9 °F - 23.0 °F 19% 30.09 in 10.0 mi NE 3.5 mph - N/A   Clear
12:53 PM 70.0 °F - 21.9 °F 16% 30.06 in 10.0 mi Variable 4.6 mph - N/A   Clear
1:53 PM 70.0 °F - 23.0 °F 17% 30.05 in 10.0 mi Variable 5.8 mph - N/A   Clear
2:53 PM 70.0 °F - 23.0 °F 17% 30.06 in 10.0 mi SE 5.8 mph - N/A   Clear
3:53 PM 70.0 °F - 26.1 °F 19% 30.05 in 10.0 mi East 6.9 mph - N/A   Clear
4:53 PM 66.9 °F - 28.0 °F 23% 30.07 in 10.0 mi ESE 6.9 mph - N/A   Clear
5:53 PM 62.1 °F - 30.0 °F 30% 30.10 in 10.0 mi SE 6.9 mph - N/A   Clear
6:53 PM 55.9 °F - 30.0 °F 37% 30.13 in 10.0 mi South 6.9 mph - N/A   Clear
7:53 PM 54.0 °F - 30.0 °F 40% 30.14 in 10.0 mi South 5.8 mph - N/A   Clear
8:53 PM 50.0 °F - 33.1 °F 52% 30.13 in 10.0 mi Calm Calm - N/A   Clear
9:53 PM 46.9 °F - 30.9 °F 54% 30.13 in 10.0 mi South 3.5 mph - N/A   Clear
10:53 PM 46.0 °F - 30.9 °F 56% 30.12 in 10.0 mi Calm Calm - N/A   Clear
11:53 PM 44.1 °F 42.5 °F 30.0 °F 58% 30.12 in 10.0 mi SSE 3.5 mph - N/A   Clear